Regional Weather Roundup
Issued by NWS

Home | Current Version | Previous Version | Text Only | Print | Product List | Glossary Off
Versions: 1 2 3 4 5 6 7 8 9 10 11 12 13 14 15 16 17 18 19 20 21 22 23 24 25 26 27 28 29 30 31 32 33 34 35 36 37 38 39 40 41 42 43 44 45 46 47 48 49 50

000
ASUS43 KOAX 261510
RWRNE

WEATHER ROUNDUP FOR NEBRASKA
NATIONAL WEATHER SERVICE OMAHA NE
1000 AM CDT SUN APR 26 2015

NOTES: SATELLITE DATA IS BEING USED TO AUGMENT CLOUD COVER ABOVE
       12000 FEET.
       "FAIR" INDICATES FEW OR NO CLOUDS BELOW 12,000 FEET WITH NO
       SIGNIFICANT WEATHER AND/OR OBSTRUCTIONS TO VISIBILITY.

  * THESE STATIONS DO NOT REPORT WEATHER SUCH AS RAIN...SNOW OR FOG.

NEZ001>004-019>022-054>056-261600-
NEBRASKA PANHANDLE

CITY           SKY/WX    TMP DP  RH WIND       PRES   REMARKS
SCOTTSBLUFF    RAIN      46  32  58 SE16      29.90R
ALLIANCE       LGT RAIN  44  43  96 E13       29.92R FOG
CHADRON        CLOUDY    49  45  86 E10       29.92R FOG
KIMBALL        RAIN      45  44  98 SE6       29.88R
SIDNEY         FOG       43  42  97 SE16      29.91R VSB 1/4
$$

NEZ057>060-069>072-079>082-261600-
SOUTHWEST NEBRASKA

CITY           SKY/WX    TMP DP  RH WIND       PRES   REMARKS
IMPERIAL       CLOUDY    43  41  93 SE16      29.93S
LEXINGTON      CLOUDY    44  42  92 E14       29.97S FOG
MCCOOK         CLOUDY    45  42  89 E17G23    29.94R FOG
OGALLALA       CLOUDY    43  43  97 SE13      29.95R FOG
$$

NEZ005>010-023>029-035>040-094-261600-
NORTH CENTRAL NEBRASKA

CITY           SKY/WX    TMP DP  RH WIND       PRES   REMARKS
VALENTINE      CLOUDY    47  38  71 SE15      30.01R
AINSWORTH      CLOUDY    46  39  77 SE13      30.02S
BROKEN BOW     CLOUDY    46  40  79 E15G25    29.99R
O`NEILL        MOSUNNY   52  41  66 E12       30.03S
ORD            PTSUNNY   48  38  68 E13       30.00R
THEDFORD       CLOUDY    44  43  95 E14       29.99R FOG
$$

NEZ041-046>049-061>064-073>077-083>087-261600-
SOUTH CENTRAL NEBRASKA

CITY           SKY/WX    TMP DP  RH WIND       PRES   REMARKS
GRAND ISLAND   CLOUDY    47  39  74 E10       30.02R
AURORA         MOSUNNY   49  42  78 E14       30.01S
HASTINGS       CLOUDY    47  41  80 E15       29.99S
HEBRON         CLOUDY    46  42  84 E9        30.00R FOG
HOLDREGE       CLOUDY    44  42  93 E16       29.96S FOG
KEARNEY *      CLOUDY    46  39  76 E18       29.99S
YORK           MOSUNNY   48  41  76 E14       30.02S
$$

NEZ011>018-030>034-042>045-261600-
NORTHEAST NEBRASKA

CITY           SKY/WX    TMP DP  RH WIND       PRES   REMARKS
NORFOLK        SUNNY     51  37  58 E17       30.04R
ALBION         SUNNY     49  38  65 E12       30.04R
BLAIR          MOSUNNY   49  39  69 E9        30.05R
COLUMBUS *     MOSUNNY   48  37  66 E14       30.06R
FREMONT        MOSUNNY   50  40  68 E15       30.06R
TEKAMAH        SUNNY     52  39  61 E10       30.06R
WAYNE          SUNNY     53  34  49 E13       30.07R
$$

NEZ050>053-065>068-078-088>093-261600-
SOUTHEAST NEBRASKA

CITY           SKY/WX    TMP DP  RH WIND       PRES   REMARKS
LINCOLN        MOSUNNY   51  40  65 E12       30.04R
OMAHA EPPLEY   PTSUNNY   50  39  66 E9        30.05R
BEATRICE       CLOUDY    46  42  84 E10       30.01R
FALLS CITY     CLOUDY    48  41  76 E15       29.99R
NEBRASKA CITY  MOSUNNY   50  40  68 E14       30.02R
PLATTSMOUTH    MOSUNNY   49  40  69 E13       30.03R
$$

NEZ044-045-051>053-067-261600-
OMAHA AREA

CITY           SKY/WX    TMP DP  RH WIND       PRES   REMARKS
OMAHA EPPLEY   PTSUNNY   50  39  66 E9        30.05R
BLAIR          MOSUNNY   49  39  69 E9        30.05R
FREMONT        MOSUNNY   50  40  68 E15       30.06R
MILLARD        SUNNY     50  40  67 E8        30.04S
OFFUTT AFB     PTSUNNY   52  41  66 E10       30.04R
PLATTSMOUTH    MOSUNNY   49  40  69 E13       30.03R
WAHOO          FAIR      50  39  66 E12       30.05R
$$



USA.gov is the U.S. government's official web portal to all federal, state and local government web resources and services.